Airfield :
LOGIN :

Register | Disclaimer

   EN    FR    IT 

 










Legend :    VFR   Marginal VFR   IFR   Intensive IFR   Very Intensive IFR
Visi :
Ceiling :
>= 8 km
>= 3000ft
5 to 8 km
1000 to 3000 ft
1500m to 5 km
500 to 1000 ft
800 to 1500m
200 to 500 ft
< 800m
< 200 ft
Symbols :   Thunderstorms  Fog  Heavy snow  Heavy precipitations  Wind > 20 kt
SIGMETs :     Misc.  Thunderstorms  Icing  Turbulence  Mountain Waves  Volcanic Ashes






- Airport Elevation : 20 ft
- IATA code : BJA


DAAE - Soummam - Bejaia

CURRENT METAR :
  • 180500Z 13017KT 8000 NSC 25/21 Q1009

EXPIRED METARs :
  • 180400Z 11004KT 8000 NSC 29/18 Q1008
  • 180300Z 28008KT 8000 FEW023CB SCT233 33/14 Q1008
  • 180200Z 27006KT 8000 FEW023CB SCT233 25/21 Q1008
  • 180100Z 35003KT 8000 FEW023CB SCT233 24/21 Q1009

TAF TAF DAAE
Valid from the 18 at 00:00 until the 19 at 00:00 UTC


172300Z 1800/1824 09006KT 8000 NSC
PROB30 1812/1821 FEW030CB



MET'MAP, your aeronautical weather chart ! - Copyright ORBIFLY December 2007 - Disclaimer

ORBIFLY MET'MAP TEAM :

Programming & Development : Alexandra Zaïnal
Original concept : Baudouin d'Aumeries
Technical & hardware support : Manuel Goepfert
Assistance : Marc-Olivier Méhu




SOURCES & CREDITS :

   NOAA